Weather History for Bozeman, MT

Change the Weather History Date:

Saturday, March 16, 2013

  Actual Average Record
Temperature  
Mean Temperature 41 °F 37 °F  
Max Temperature 54 °F 50 °F 71 °F (1994)
Min Temperature 28 °F 24 °F -11 °F (1943)
Degree Days  
Heating Degree Days 24    
Month to date heating degree days 496  
Since 1 July heating degree days 6228  
Cooling Degree Days 0    
Month to date cooling degree days 0  
Year to date cooling degree days 0  
Moisture  
Dew Point 23 °F    
Average Humidity 54    
Maximum Humidity 85    
Minimum Humidity 22    
Precipitation  
Precipitation 0.00 in 0.03 in 0.39 in (1998)
Month to date precipitation 0.04 0.40  
Year to date precipitation 0.35 1.31  
Snow  
Snow 0.00 in 0.30 in 2.20 in (1949)
Month to date snowfall 0.2 3.8  
Since 1 July snowfall 18.1 26.1  
Snow Depth 0.00 in    
Sea Level Pressure  
Sea Level Pressure 29.88 in    
Wind  
Wind Speed 6 mph (SSW)    
Max Wind Speed 18 mph    
Max Gust Speed 24 mph    
Visibility 10 miles    
Events      
T = Trace of Precipitation, MM = Missing Value Source: NWS Daily Summary

Daily Weather History Graph

Daily Weather History Graph

Search for Another Location

Airport:

Trip Planner

Search our weather history database for the weather conditions in past years. The results will help you decide how hot, cold, wet, or windy it might be!

Date:

Astronomy

Mar. 16, 2013 Rise Set
Actual Time 7:34 AM MDT 7:32 PM MDT
Civil Twilight 7:05 AM MDT 8:01 PM MDT
Nautical Twilight 6:30 AM MDT 8:36 PM MDT
Astronomical Twilight 5:55 AM MDT 9:12 PM MDT
Moon 9:51 AM MDT (3/16) 12:03 AM MDT (3/16)
Length of Visible Light 12h 56m
Length of Day
11h 57m
Waxing Crescent, 23% of the Moon is Illuminated
Mar 16
Waxing Crescent
Mar 19
First Quarter
Mar 27
Full
Apr 2
Last Quarter
Apr 10
New

Hourly Weather History & Observations

Time (MDT) Temp. Windchill Dew Point Humidity Pressure Visibility Wind Dir Wind Speed Gust Speed Precip Events Conditions
12:56 AM 37.9 °F 32.7 °F 26.1 °F 62% 30.02 in 10.0 mi West 6.9 mph - N/A   Clear
1:56 AM 34.0 °F 31.0 °F 26.1 °F 73% 30.02 in 10.0 mi South 3.5 mph - N/A   Clear
2:56 AM 28.9 °F 25.2 °F 23.0 °F 78% 30.03 in 10.0 mi South 3.5 mph - N/A   Clear
3:56 AM 28.0 °F 20.0 °F 23.0 °F 81% 30.01 in 10.0 mi SSE 8.1 mph - N/A   Clear
4:56 AM 30.9 °F 25.2 °F 25.0 °F 79% 30.00 in 10.0 mi South 5.8 mph - N/A   Clear
5:56 AM 32.0 °F - 25.0 °F 75% 30.00 in 10.0 mi Calm Calm - N/A   Clear
6:56 AM 28.9 °F 23.9 °F 24.1 °F 82% 30.01 in 10.0 mi SE 4.6 mph - N/A   Mostly Cloudy
7:56 AM 28.0 °F 21.7 °F 23.0 °F 81% 30.02 in 10.0 mi South 5.8 mph - N/A   Mostly Cloudy
8:56 AM 34.0 °F 28.0 °F 28.0 °F 79% 29.99 in 10.0 mi SSE 6.9 mph - N/A   Clear
9:56 AM 39.9 °F - 27.0 °F 60% 29.99 in 10.0 mi Calm Calm - N/A   Scattered Clouds
10:56 AM 42.1 °F - 30.0 °F 62% 29.99 in 10.0 mi Calm Calm - N/A   Overcast
11:56 AM 48.0 °F - 27.0 °F 44% 29.96 in 10.0 mi NW 5.8 mph - N/A   Clear
12:56 PM 48.9 °F - 23.0 °F 36% 29.93 in 10.0 mi NW 9.2 mph - N/A   Partly Cloudy
1:56 PM 51.1 °F - 21.0 °F 31% 29.89 in 10.0 mi SW 8.1 mph 17.3 mph N/A   Overcast
2:56 PM 51.1 °F - 19.0 °F 28% 29.87 in 10.0 mi SW 6.9 mph - N/A   Scattered Clouds
3:56 PM 52.0 °F - 15.1 °F 23% 29.82 in 10.0 mi SW 15.0 mph 24.2 mph N/A   Overcast
4:56 PM 53.1 °F - 15.1 °F 22% 29.78 in 10.0 mi SW 12.7 mph - N/A   Mostly Cloudy
5:56 PM 51.1 °F - 16.0 °F 25% 29.76 in 10.0 mi SW 8.1 mph - N/A   Clear
6:56 PM 48.9 °F - 18.0 °F 29% 29.75 in 10.0 mi NW 3.5 mph - N/A   Overcast
7:56 PM 48.0 °F - 19.0 °F 32% 29.74 in 10.0 mi Calm Calm - N/A   Overcast
8:56 PM 48.0 °F - 21.0 °F 34% 29.70 in 10.0 mi SSW 12.7 mph - N/A   Overcast
9:56 PM 43.0 °F 39.5 °F 23.0 °F 45% 29.67 in 10.0 mi South 5.8 mph - N/A   Overcast
10:56 PM 42.1 °F 37.7 °F 23.0 °F 47% 29.63 in 10.0 mi SSE 6.9 mph - N/A   Mostly Cloudy
11:56 PM 42.1 °F 38.4 °F 23.0 °F 47% 29.57 in 10.0 mi SSE 5.8 mph - N/A   Overcast